| time (UTC) | temp C | wind direction | speed KPH | gust KPH | rain 1hr cm | rain 24hr cm | rain mn cm | humidity % | barometer mb |
| 20260506030006 | 7 | 78 | 9.7 | 17.7 | 0.00 | 0.00 | 0.00 | 60 | 1011.5 |
| 20260506024505 | 8 | 68 | 14.5 | 19.3 | 0.00 | 0.00 | 0.00 | 57 | 1011.5 |
| 20260506023003 | 8 | 71 | 14.5 | 20.9 | 0.00 | 0.00 | 0.00 | 56 | 1011.7 |
| 20260506021502 | 8 | 87 | 12.9 | 19.3 | 0.00 | 0.00 | 0.00 | 56 | 1011.9 |
| 20260506020100 | 8 | 83 | 9.7 | 20.9 | 0.00 | 0.00 | 0.00 | 59 | 1011.9 |
| 20260506014558 | 8 | 77 | 14.5 | 19.3 | 0.00 | 0.00 | 0.00 | 61 | 1011.9 |
| 20260506013055 | 8 | 72 | 8.0 | 17.7 | 0.00 | 0.00 | 0.00 | 61 | 1011.9 |
| 20260506011612 | 8 | 80 | 12.9 | 19.3 | 0.00 | 0.00 | 0.00 | 57 | 1011.8 |
| 20260506010059 | 8 | 86 | 11.3 | 24.1 | 0.00 | 0.00 | 0.00 | 58 | 1011.8 |
| 20260506004603 | 9 | 68 | 16.1 | 25.7 | 0.00 | 0.00 | 0.00 | 52 | 1011.6 |
| 20260506003101 | 9 | 67 | 19.3 | 25.7 | 0.00 | 0.00 | 0.00 | 52 | 1011.5 |
| 20260506001542 | 9 | 49 | 17.7 | 25.7 | 0.00 | 0.00 | 0.00 | 57 | 1011.6 |
| 20260506000040 | 9 | 69 | 20.9 | 27.4 | 0.00 | 0.00 | 0.00 | 54 | 1011.5 |
| 20260505234558 | 10 | 72 | 22.5 | 29.0 | 0.00 | 0.00 | 0.00 | 57 | 1011.5 |
| 20260505233039 | 10 | 63 | 20.9 | 29.0 | 0.00 | 0.00 | 0.00 | 57 | 1011.7 |
| 20260505231536 | 10 | 60 | 19.3 | 29.0 | 0.00 | 0.00 | 0.00 | 62 | 1011.4 |
| 20260505230040 | 10 | 56 | 22.5 | 29.0 | 0.00 | 0.00 | 0.00 | 60 | 1011.5 |
| 20260505224530 | 10 | 63 | 17.7 | 24.1 | 0.00 | 0.00 | 0.00 | 66 | 1011.6 |
| 20260505223027 | 10 | 60 | 19.3 | 25.7 | 0.00 | 0.00 | 0.00 | 66 | 1011.8 |
| 20260505221524 | 10 | 53 | 17.7 | 25.7 | 0.00 | 0.00 | 0.00 | 65 | 1011.8 |
| 20260505220029 | 10 | 56 | 19.3 | 24.1 | 0.00 | 0.00 | 0.00 | 66 | 1011.9 |
| 20260505214523 | 10 | 49 | 14.5 | 20.9 | 0.00 | 0.00 | 0.00 | 68 | 1012.0 |
| 20260505213019 | 10 | 53 | 14.5 | 19.3 | 0.00 | 0.00 | 0.00 | 66 | 1011.9 |
| 20260505211518 | 10 | 63 | 14.5 | 22.5 | 0.00 | 0.00 | 0.00 | 67 | 1012.0 |
| 20260505210017 | 10 | 57 | 16.1 | 20.9 | 0.00 | 0.00 | 0.00 | 67 | 1012.1 |
| 20260505204515 | 10 | 67 | 16.1 | 22.5 | 0.00 | 0.00 | 0.00 | 67 | 1011.9 |
| 20260505203015 | 10 | 43 | 16.1 | 20.9 | 0.00 | 0.00 | 0.00 | 68 | 1012.0 |
| 20260505201518 | 10 | 46 | 14.5 | 20.9 | 0.00 | 0.00 | 0.00 | 69 | 1012.0 |
| 20260505200013 | 10 | 66 | 16.1 | 22.5 | 0.00 | 0.00 | 0.00 | 69 | 1012.0 |
| 20260505194528 | 10 | 34 | 14.5 | 19.3 | 0.00 | 0.00 | 0.00 | 68 | 1012.0 |
| 20260505193031 | 10 | 51 | 12.9 | 20.9 | 0.00 | 0.00 | 0.00 | 67 | 1012.0 |
| 20260505191511 | 10 | 44 | 11.3 | 16.1 | 0.00 | 0.00 | 0.00 | 69 | 1011.9 |
| 20260505190012 | 10 | 35 | 12.9 | 17.7 | 0.00 | 0.00 | 0.00 | 68 | 1012.0 |
| 20260505184510 | 10 | 55 | 14.5 | 20.9 | 0.00 | 0.00 | 0.00 | 67 | 1011.9 |
| 20260505183013 | 10 | 50 | 12.9 | 20.9 | 0.00 | 0.00 | 0.00 | 66 | 1011.7 |
| 20260505181508 | 10 | 56 | 12.9 | 17.7 | 0.00 | 0.00 | 0.00 | 63 | 1011.6 |
| 20260505180007 | 10 | 52 | 12.9 | 17.7 | 0.00 | 0.00 | 0.00 | 65 | 1011.6 |
| 20260505174510 | 10 | 37 | 14.5 | 20.9 | 0.00 | 0.00 | 0.00 | 63 | 1011.6 |
| 20260505173006 | 10 | 30 | 17.7 | 22.5 | 0.00 | 0.00 | 0.00 | 64 | 1011.7 |
| 20260505171505 | 10 | 35 | 17.7 | 20.9 | 0.00 | 0.00 | 0.00 | 65 | 1011.8 |
| 20260505170011 | 10 | 31 | 16.1 | 25.7 | 0.00 | 0.00 | 0.00 | 64 | 1011.7 |
| 20260505164505 | 9 | 45 | 20.9 | 25.7 | 0.00 | 0.00 | 0.00 | 63 | 1011.8 |
| 20260505163004 | 9 | 63 | 20.9 | 24.1 | 0.00 | 0.00 | 0.00 | 65 | 1011.9 |
| 20260505161503 | 9 | 36 | 19.3 | 24.1 | 0.00 | 0.00 | 0.00 | 65 | 1011.9 |
| 20260505153002 | 9 | 30 | 20.9 | 27.4 | 0.00 | 0.00 | 0.00 | 66 | 1012.2 |
| 20260505151600 | 9 | 24 | 22.5 | 27.4 | 0.00 | 0.00 | 0.00 | 67 | 1012.2 |
| 20260505151528 | 9 | 37 | 22.5 | 27.4 | 0.00 | 0.00 | 0.00 | 67 | 1012.2 |
| 20260505124553 | 9 | 2 | 12.9 | 19.3 | 0.00 | 0.00 | 0.00 | 74 | 1012.2 |
| 20260505123109 | 9 | 26 | 14.5 | 20.9 | 0.00 | 0.00 | 0.00 | 72 | 1012.3 |
| 20260505121550 | 9 | 41 | 17.7 | 25.7 | 0.00 | 0.00 | 0.00 | 74 | 1012.4 |
| 20260505120051 | 9 | 359 | 16.1 | 24.1 | 0.00 | 0.00 | 0.00 | 75 | 1012.2 |
| 20260505114610 | 9 | 337 | 16.1 | 22.5 | 0.00 | 0.00 | 0.00 | 74 | 1012.3 |
| 20260505113048 | 9 | 28 | 16.1 | 20.9 | 0.00 | 0.00 | 0.00 | 74 | 1012.3 |
| 20260505111602 | 8 | 354 | 14.5 | 20.9 | 0.00 | 0.00 | 0.00 | 73 | 1012.3 |
| 20260505101546 | 8 | 355 | 14.5 | 20.9 | 0.00 | 0.00 | 0.00 | 76 | 1012.3 |
| 20260505100045 | 8 | 32 | 14.5 | 22.5 | 0.00 | 0.00 | 0.00 | 77 | 1012.3 |
| 20260505094546 | 8 | 24 | 17.7 | 22.5 | 0.00 | 0.00 | 0.00 | 77 | 1012.2 |
| 20260505093041 | 8 | 2 | 14.5 | 25.7 | 0.00 | 0.00 | 0.00 | 78 | 1012.1 |
| 20260505091539 | 8 | 357 | 16.1 | 24.1 | 0.00 | 0.00 | 0.00 | 78 | 1012.1 |
| 20260505090048 | 8 | 4 | 16.1 | 22.5 | 0.00 | 0.00 | 0.00 | 78 | 1012.0 |
| 20260505084539 | 9 | 49 | 17.7 | 24.1 | 0.00 | 0.00 | 0.00 | 78 | 1012.0 |
| 20260505083046 | 9 | 35 | 12.9 | 19.3 | 0.00 | 0.00 | 0.00 | 77 | 1011.8 |
| 20260505081545 | 9 | 16 | 12.9 | 19.3 | 0.00 | 0.00 | 0.00 | 78 | 1011.9 |
| 20260505080041 | 8 | 359 | 12.9 | 22.5 | 0.00 | 0.00 | 0.00 | 79 | 1011.7 |
| 20260505074538 | 8 | 4 | 16.1 | 24.1 | 0.00 | 0.00 | 0.00 | 79 | 1011.7 |
| 20260505073033 | 8 | 3 | 19.3 | 25.7 | 0.00 | 0.00 | 0.00 | 79 | 1011.7 |
| 20260505071537 | 9 | 335 | 17.7 | 27.4 | 0.00 | 0.00 | 0.00 | 79 | 1011.6 |
| 20260505070033 | 8 | 353 | 16.1 | 22.5 | 0.00 | 0.00 | 0.00 | 75 | 1011.6 |
| 20260505064540 | 8 | 25 | 14.5 | 22.5 | 0.00 | 0.00 | 0.00 | 77 | 1011.5 |
| 20260505063024 | 8 | 1 | 19.3 | 24.1 | 0.00 | 0.00 | 0.00 | 78 | 1011.4 |
| 20260505061534 | 8 | 356 | 17.7 | 24.1 | 0.00 | 0.00 | 0.00 | 80 | 1011.4 |
| 20260505060027 | 8 | 352 | 19.3 | 24.1 | 0.00 | 0.00 | 0.00 | 80 | 1011.6 |
| 20260505054521 | 8 | 19 | 20.9 | 27.4 | 0.00 | 0.00 | 0.00 | 79 | 1011.4 |
| 20260505053018 | 8 | 332 | 19.3 | 25.7 | 0.00 | 0.00 | 0.00 | 80 | 1011.4 |
| 20260505051515 | 8 | 358 | 16.1 | 24.1 | 0.00 | 0.00 | 0.00 | 79 | 1011.4 |
| 20260505041513 | 8 | 314 | 9.7 | 20.9 | 0.00 | 0.00 | 0.00 | 82 | 1011.2 |
| 20260505040011 | 8 | 307 | 11.3 | 17.7 | 0.00 | 0.00 | 0.00 | 81 | 1011.2 |
| 20260505034507 | 8 | 344 | 19.3 | 27.4 | 0.00 | 0.00 | 0.00 | 80 | 1011.1 |
| 20260505033005 | 8 | 3 | 19.3 | 27.4 | 0.00 | 0.00 | 0.00 | 80 | 1011.1 |
| 20260505031502 | 8 | 340 | 19.3 | 25.7 | 0.00 | 0.00 | 0.00 | 81 | 1011.1 |